This demonstration page uses our WeatherBlox Daily Observations layout. Learn more.

Left ArrowRight Arrow

44.8408, -93.29828

Hourly Observations for March 18, 2016

Temp ( °F °C ) Dew Point ( °F °C ) Humidity (%) Winds ( mph kmh ) Pressure ( in mb ) Visibility ( mi km ) Precip ( " mm )
12:53 am 00:53 Mostly Cloudy 32 0 24 -4.4 73 73 W 6 9 30.02 1017 10 16 0.00 0.00
1:53 am 01:53 Cloudy 33 0.6 25 -3.9 72 72 W 5 7 30.03 1017 10 16 0.00 0.00
2:53 am 02:53 Cloudy 33 0.6 25 -3.9 72 72 W 5 7 30.03 1017 10 16 0.00 0.00
3:53 am 03:53 Cloudy 33 0.6 26 -3.3 75 75 W 5 7 30.04 1017 10 16 0.00 0.00
4:53 am 04:53 Cloudy 33 0.6 27 -2.8 78 78 WNW 5 7 30.06 1018 10 16 0.00 0.00
5:53 am 05:53 Cloudy 33 0.6 28 -2.2 82 82 NW 6 9 30.07 1018 8 13 0.00 0.00
6:53 am 06:53 Cloudy 32 0 27 -2.8 82 82 N 8 13 30.09 1019 10 16 0.00 0.00
7:53 am 07:53 Cloudy with Light Snow 31 -0.6 28 -2.2 89 89 NNE 7 11 30.10 1019 6 10 0.00 0.03
8:30 am 08:30 Cloudy with Light Snow 31 -0.6 28 -2.2 89 89 NNE 6 9 30.12 1020 7 11 0.00 0.03
8:53 am 08:53 Cloudy with Light Snow 31 -0.6 28 -2.2 89 89 NNE 5 7 30.11 1020 8 13 0.00 0.03
9:07 am 09:07 Cloudy with Light Snow 32 0 28 -2.2 85 85 NNE 5 7 30.12 1020 8 13 0.00 0.03
9:53 am 09:53 Cloudy 33 0.6 27 -2.8 78 78 NNE 8 13 30.12 1020 10 16 0.00 0.03
10:40 am 10:40 Cloudy 33 0.6 25 -3.9 72 72 VRB 5 7 30.15 1021 10 16 0.00 0.00
10:53 am 10:53 Cloudy 33 0.6 24 -4.4 70 70 VRB 3 6 30.14 1021 10 16 0.00 0.00
11:53 am 11:53 Cloudy 34 1.1 25 -3.9 70 70 NNE 6 9 30.15 1021 10 16 0.00 0.00
12:53 pm 12:53 Cloudy 36 2.2 25 -3.9 64 64 N 5 7 30.15 1021 10 16 0.00 0.00
1:53 pm 13:53 Cloudy 36 2.2 25 -3.9 64 64 ENE 5 7 30.15 1021 10 16 0.00 0.00
2:53 pm 14:53 Cloudy 36 2.2 25 -3.9 64 64 NNE 6 9 30.14 1021 10 16 0.00 0.00
3:53 pm 15:53 Cloudy 36 2.2 24 -4.4 62 62 NNE 6 9 30.14 1021 10 16 0.00 0.00
4:06 pm 16:06 Cloudy 36 2.2 25 -3.9 64 64 NNE 7 11 30.15 1021 10 16 0.00 0.00
4:53 pm 16:53 Cloudy with Light Snow 36 2.2 25 -3.9 64 64 N 7 11 30.15 1021 10 16 0.00 0.03
5:21 pm 17:21 Cloudy 36 2.2 26 -3.3 67 67 N 6 9 30.15 1021 10 16 0.00 0.03
5:29 pm 17:29 Cloudy 36 2.2 26 -3.3 67 67 NNE 8 13 30.15 1021 10 16 0.00 0.03
5:53 pm 17:53 Cloudy 36 2.2 26 -3.3 67 67 NNE 8 13 30.16 1021 10 16 0.00 0.03
6:31 pm 18:31 Cloudy 35 1.7 27 -2.8 72 72 NNE 10 17 30.15 1021 10 16 0.00 0.00
6:38 pm 18:38 Cloudy 36 2 27 -3 70 70 NNE 8 13 30.18 1022 10 16 0.00 0.00
6:53 pm 18:53 Cloudy with Light Snow 35 1.7 28 -2.2 76 76 NNE 9 15 30.16 1022 9 14 0.00 0.03
7:11 pm 19:11 Cloudy with Light Snow 35 1.7 28 -2.2 76 76 NNE 8 13 30.18 1022 8 13 0.00 0.03
7:51 pm 19:51 Cloudy with Light Snow 34 1 28 -2 81 81 NNE 10 17 30.18 1022 9 14 0.00 0.03
7:53 pm 19:53 Cloudy with Light Snow 34 1.1 29 -1.7 82 82 NNE 9 15 30.17 1022 9 14 0.00 0.03
8:30 pm 20:30 Cloudy with Light Snow 34 1 28 -2 81 81 NNE 9 15 30.18 1022 9 14 0.00 0.00
8:43 pm 20:43 Cloudy with Light Snow 34 1.1 29 -1.7 82 82 NNE 10 17 30.18 1022 9 14 0.00 0.03
8:53 pm 20:53 Cloudy with Light Snow 33 0.6 29 -1.7 85 85 N 9 15 30.19 1022 9 14 0.00 0.03
9:53 pm 21:53 Cloudy with Light Snow 32 0 28 -2.2 85 85 NNE 10 17 30.19 1022 9 14 0.00 0.03
10:53 pm 22:53 Cloudy 32 0 27 -3 80 80 NNE 12 19 30.18 1022 10 16 0.00 0.00
11:53 pm 23:53 Cloudy with Light Snow 31 -0.6 25 -3.9 79 79 NNE 12 19 30.19 1022 7 11 0.00 0.03

Powered by AerisWeather